online event registration and payment

Go-Green Events is an event registration and payment web site. We work with all events to provide well-organized and easy-to-use registration services at a low cost.

 

New Year's Eve Champagne Run on Dec. 31, 2013, 8:58 p.m.

2013 NYE Champagne Run            
GTC-Elite              
December 31st 2013            
iCar Center              
                 
                 
Timing Questions:  Scott@go-greenevents.com      
                 
                 
Place Bib # Name Finish Pace Age Gender City State
1 3828 MATT SHOCK 0:17:03 5:30 31 M GREENVILLE SC
2 3864 HAYGOOD GRANTHAM 0:17:12 5:33 21 M GREENVILLE SC
3 3849 MATT VERLEY 0:17:59 5:48 28 M GREENVILLE SC
4 3838 MICHELLE ZIEGLER 0:19:37 6:20 32 F GREENVILLE SC
5 3928 BRAD DELLINGER 0:20:17 6:32 47 M GREENVILLE SC
6 3872 ASHLEY SOUTHERN 0:20:36 6:38 26 F GREENVILLE SC
7 3839 MADISON ELLIS 0:20:37 6:39 13 F GREENVILLE SC
8 3823 DERRICH PHILLIPS 0:20:45 6:41 35 M ROCK HILL SC
9 3924 ROBBIE SWOFFORD 0:20:51 6:44 36 M GREENVILLE SC
10 3840 STEVEN ELLIS 0:21:09 6:49 40 M GREENVILLE SC
11 3815 EUGENE KIM 0:22:06 7:07 42 M GREENVILLE SC
12 3875 ANDRES DIAZ 0:22:56 7:24 36 M SIMPSONVILLE SC
13 3929 MAURA CARTER 0:23:18 7:31 25 F GREENVILLE SC
14 3930 BRETTON STAMLER 0:23:23 7:32 26 M GREENVILLE SC
15 3867 ALAN CANNON 0:23:26 7:34 44 M SUMTER SC
16 3862 JAMES NOVAK 0:23:29 7:34 48 M SIMPSONVILLE SC
17 3925 FAITH RUSSELL 0:23:47 7:40 18 F GREENVILLE SC
18 3852 REBECCA LESLEY 0:24:15 7:49 13 F SIMPSONVILLE SC
19 3811 LINDSAY HURLEY 0:24:17 7:50 32 F CENTRAL SC
20 3856 FRED DIMITREW 0:24:20 7:51 56 M GREENVILLE SC
21 3863 LIESL COX 0:24:39 7:57 44 F SIMPSONVILLE SC
22 3927 MATT MUMAUGH 0:25:06 8:05 43 M GREENVILLE SC
23 3869 TIM CARTER 0:25:14 8:08 57 M GREENVILLE SC
24 3853 TONYA COCHRAN 0:25:19 8:10 36 F PIEDMONT SC
25 3865 BETH GRUMBLES 0:25:54 8:21 54 F EASLEY SC
26 3932 FANNY MORALES 0:26:26 8:31 38 F GREENVILLE SC
27 3810 STEVEN HELLER 0:26:49 8:39 49 M GREENVILLE SC
28 3824 KATIE PHILLIPS 0:27:18 8:48 32 F ROCK HILL SC
29 3806 TOM CALAMIA 0:27:35 8:54 48 M SIMPSONVILLE SC
30 3854 FRED CARTWRIGHT 0:28:05 9:04 55 M GREENVILLE SC
31 3825 DAVID RAYFIELD 0:28:30 9:12 61 M GREENVILLE SC
32 3804 MICHAEL BURCHETT 0:28:40 9:15 48 M GREENVILLE SC
33 3857 LISETTE DIMITREW 0:29:01 9:21 55 F GREENVILLE SC
34 3844 WIL MCCARTY 0:29:14 9:25 47 M BOILING SPRINGS SC
35 3843 LISA MCCARTY 0:29:14 9:26 38 F BOILING SPRINGS SC
36 3836 SUSAN WENINGER 0:29:47 9:36 36 F SIMPSONVILLE SC
37 3858 GREG DIMITREW 0:30:15 9:45 28 M GREENVILLE SC
38 3805 ROBIN CALAMIA 0:30:21 9:47 49 F SIMPSONVILLE SC
39 3861 LINDSAY HASELDEN 0:30:24 9:48 23 F SEATTLE SC
40 3860 MARY HASELDEN 0:30:29 9:50 57 F GREENVILLE SC
41 3919 DAVID HARTSON 0:31:03 10:01 45 M GREENVILLE SC
42 3918 TAMARA HEMINGWAY 0:31:03 10:01 48 F GREENVILLE SC
43 3931 GREGG WELBORN 0:31:47 10:15 61 M GREENVILLE SC
44 3936 NANCY SUE 0:31:49 10:16 51 F GREENVILLE SC
45 3922 WILL CLARK 0:31:50 10:16 43 M GREENVILLE SC
46 3845 RITA REVELS 0:31:54 10:17 46 F YORK SC
47 3846 SCOTT REVELS 0:31:58 10:18 48 M YORK SC
48 3855 SUSAN JONES 0:33:31 10:48 55 F PIEDMONT SC
49 3803 RAYA BAKER 0:34:09 11:01 38 F NAVARRE FL
50 3829 BURGESS SHUCKER 0:34:09 11:01 40 M GREENVILLE SC
51 3821 MARTHA MCCARTY 0:34:49 11:14 33 F GREER SC
52 3837 JOSHUA ZEIGLER 0:34:50 11:14 38 M LYMAN SC
53 3923 KOLBY CLARK 0:35:24 11:25 17 M GREENVILLE SC
54 3912 ALLISON COPSEY 0:36:06 11:38 14 F GREENVILLE SC
55 3913 NAN WILSON 0:36:07 11:39 13 F GREENVILLE SC
56 3832 SOFIA TEMPLE 0:37:00 11:56 57 F TAYLORS SC
57 3801 RUTH ALBRIGHT 0:37:03 11:57 49 F GREENVILLE SC
58 3916 KASPER FULGHUM 0:37:24 12:04 39 M GREENVILLE SC
59 3917 PAULA FULGHAM 0:37:25 12:04 39 F GREENVILLE SC
60 3817 MELISSA LEE 0:37:59 12:15 37 F SIMPSONVILLE SC
61 3818 RANDY LEE 0:38:00 12:15 40 M SIMPSONVILLE SC
62 3808 CHRIS GIORDANELLI 0:38:11 12:19 49 M SIMPSONVILLE SC
63 3809 JANIS GIORDANELLI 0:38:11 12:19 57 F GREENVILLE SC
64 3870 TARA HILE 0:38:44 12:29 34 F GREENVILLE SC
65 3871 SCOTT HILE 0:38:44 12:29 40 M GREENVILLE SC
66 3868 ANN CANNON 0:39:22 12:42 45 F SUMTER SC
67 3822 MEGHAN MCCARTY 0:39:24 12:42 24 F GREER SC
68 3820 JOSEPH MCCARTY 0:39:24 12:42 24 M GREER SC
69 3813 DEWITT JONES 0:39:25 12:43 42 M GREER SC
70 3830 BAIRD SIKKELEE 0:39:26 12:43 27 F SIMPSONVILLE SC
71 3831 ZACH SIKKELEE 0:39:27 12:43 27 M SIMPSONVILLE SC
72 3814 JENNY JONES 0:39:30 12:45 41 F GREER SC
73 3866 KELLI ROBERTSON 0:40:08 12:56 2 F GREENVILLE SC
74 3921 COURTNEY FITZPATRICK 0:40:08 12:56 33 F GREENVILLE SC
75 3812 JENNIFER JAMES 0:40:54 13:12 44 F GREENVILLE SC
76 3816 GINA LEE 0:41:58 13:32 41 F SIMPSONVILLE SC
77 3819 THOMAS LEE 0:41:58 13:32 43 M SIMPSONVILLE SC
78 3933 ODETE WATSON 0:46:24 14:58 49 F GREENVILLE SC
79 3934 SUSAN GRAHAM 0:46:25 14:58 57 F GREENVILLE SC
80 3914 DONNA MCGEE 0:46:45 15:05 58 F GREENVILLE SC
81 3915 KRIS MCGEE 0:46:45 15:05 59 M GREENVILLE SC
82 3802 LOLA AMCHER 0:50:46 16:22 72 F GREER SC
83 3926 KYLEE HEAP 0:51:16 16:32 33 F GREENVILLE SC
84 3850 CONSTANCE HATFIELD 0:54:28 17:34 53 F GREENVILLE SC
85 3851 ALVIN RAMPEY 0:54:28 17:34 91 M GREENVILLE SC
86 3873 JOY COLE 0:54:35 17:36 41 F GREENVILLE SC
87 3874 MIKE COLE 0:54:36 17:37 44 M GREENVILLE SC
                 
                 
                 
                 
                 
Age Group Race Results Report as of 12/31/2013 10:03:18 PM - Top Males Overall in 5K division.  
Place Bib # Name Finish Pace Age Gender City State
1 3828 MATT SHOCK 0:17:03 5:30 31 M GREENVILLE SC
2 3864 HAYGOOD GRANTHAM 0:17:12 5:33 21 M GREENVILLE SC
3 3849 MATT VERLEY 0:17:59 5:48 28 M GREENVILLE SC
                 
Age Group Race Results Report as of 12/31/2013 10:03:18 PM - Top Females Overall in 5K division.  
Place Bib # Name Finish Pace Age Gender City State
1 3838 MICHELLE ZIEGLER 0:19:37 6:20 32 F GREENVILLE SC
2 3872 ASHLEY SOUTHERN 0:20:36 6:38 26 F GREENVILLE SC
3 3839 MADISON ELLIS 0:20:37 6:39 13 F GREENVILLE SC
                 
Age Group Race Results Report as of 12/31/2013 10:03:18 PM - Top Male Masters in 5K division.  
Place Bib # Name Finish Pace Age Gender City State
1 3928 BRAD DELLINGER 0:20:17 6:32 47 M GREENVILLE SC
2 3840 STEVEN ELLIS 0:21:09 6:49 40 M GREENVILLE SC
3 3815 EUGENE KIM 0:22:06 7:07 42 M GREENVILLE SC
                 
Age Group Race Results Report as of 12/31/2013 10:03:18 PM - Top Female Masters in 5K division.  
Place Bib # Name Finish Pace Age Gender City State
1 3863 LIESL COX 0:24:39 7:57 44 F SIMPSONVILLE SC
2 3865 BETH GRUMBLES 0:25:54 8:21 54 F EASLEY SC
3 3857 LISETTE DIMITREW 0:29:01 9:21 55 F GREENVILLE SC
                 
Age Group Race Results Report as of 12/31/2013 10:03:19 PM - Top Male Grand Masters in 5K division.
Place Bib # Name Finish Pace Age Gender City State
1 3856 FRED DIMITREW 0:24:20 7:51 56 M GREENVILLE SC
2 3869 TIM CARTER 0:25:14 8:08 57 M GREENVILLE SC
3 3854 FRED CARTWRIGHT 0:28:05 9:04 55 M GREENVILLE SC
                 
Age Group Race Results Report as of 12/31/2013 10:03:19 PM - Top Female Grand Masters in 5K division.
Place Bib # Name Finish Pace Age Gender City State
1 3860 MARY HASELDEN 0:30:29 9:50 57 F GREENVILLE SC
2 3936 NANCY SUE 0:31:49 10:16 51 F GREENVILLE SC
3 3855 SUSAN JONES 0:33:31 10:48 55 F PIEDMONT SC
                 
                 
                 
Age Group Race Report as of 12/31/2013 10:03:19 PM for Male 18 and Under in division 5K  
Place Bib # Name Finish Pace Age Gender City State
1 3923 KOLBY CLARK 0:35:24 11:25 17 M GREENVILLE SC
                 
Age Group Race Report as of 12/31/2013 10:03:19 PM for Male 19-24 in division 5K    
Place Bib # Name Finish Pace Age Gender City State
1 3820 JOSEPH MCCARTY 0:39:24 12:42 24 M GREER SC
                 
Age Group Race Report as of 12/31/2013 10:03:19 PM for Male 25-29 in division 5K    
Place Bib # Name Finish Pace Age Gender City State
1 3930 BRETTON STAMLER 0:23:23 7:32 26 M GREENVILLE SC
2 3858 GREG DIMITREW 0:30:15 9:45 28 M GREENVILLE SC
3 3831 ZACH SIKKELEE 0:39:27 12:43 27 M SIMPSONVILLE SC
                 
Age Group Race Report as of 12/31/2013 10:03:20 PM for Male 35-39 in division 5K    
Place Bib # Name Finish Pace Age Gender City State
1 3823 DERRICH PHILLIPS 0:20:45 6:41 35 M ROCK HILL SC
2 3924 ROBBIE SWOFFORD 0:20:51 6:44 36 M GREENVILLE SC
3 3875 ANDRES DIAZ 0:22:56 7:24 36 M SIMPSONVILLE SC
                 
Age Group Race Report as of 12/31/2013 10:03:20 PM for Male 40-44 in division 5K    
Place Bib # Name Finish Pace Age Gender City State
1 3867 ALAN CANNON 0:23:26 7:34 44 M SUMTER SC
2 3927 MATT MUMAUGH 0:25:06 8:05 43 M GREENVILLE SC
3 3922 WILL CLARK 0:31:50 10:16 43 M GREENVILLE SC
                 
Age Group Race Report as of 12/31/2013 10:03:20 PM for Male 45-49 in division 5K    
Place Bib # Name Finish Pace Age Gender City State
1 3862 JAMES NOVAK 0:23:29 7:34 48 M SIMPSONVILLE SC
2 3810 STEVEN HELLER 0:26:49 8:39 49 M GREENVILLE SC
3 3806 TOM CALAMIA 0:27:35 8:54 48 M SIMPSONVILLE SC
                 
Age Group Race Report as of 12/31/2013 10:03:20 PM for Male 55-59 in division 5K    
Place Bib # Name Finish Pace Age Gender City State
1 3915 KRIS MCGEE 0:46:45 15:05 59 M GREENVILLE SC
                 
Age Group Race Report as of 12/31/2013 10:03:21 PM for Male 60-64 in division 5K    
Place Bib # Name Finish Pace Age Gender City State
1 3825 DAVID RAYFIELD 0:28:30 9:12 61 M GREENVILLE SC
2 3931 GREGG WELBORN 0:31:47 10:15 61 M GREENVILLE SC
                 
Age Group Race Report as of 12/31/2013 10:03:21 PM for Male 70 and Older in division 5K  
Place Bib # Name Finish Pace Age Gender City State
1 3851 ALVIN RAMPEY 0:54:28 17:34 91 M GREENVILLE SC
                 
Age Group Race Report as of 12/31/2013 10:03:21 PM for Female 18 and Under in division 5K  
Place Bib # Name Finish Pace Age Gender City State
1 3925 FAITH RUSSELL 0:23:47 7:40 18 F GREENVILLE SC
2 3852 REBECCA LESLEY 0:24:15 7:49 13 F SIMPSONVILLE SC
3 3912 ALLISON COPSEY 0:36:06 11:38 14 F GREENVILLE SC
                 
Age Group Race Report as of 12/31/2013 10:03:22 PM for Female 19-24 in division 5K  
Place Bib # Name Finish Pace Age Gender City State
1 3861 LINDSAY HASELDEN 0:30:24 9:48 23 F SEATTLE SC
2 3822 MEGHAN MCCARTY 0:39:24 12:42 24 F GREER SC
                 
Age Group Race Report as of 12/31/2013 10:03:22 PM for Female 25-29 in division 5K  
Place Bib # Name Finish Pace Age Gender City State
1 3929 MAURA CARTER 0:23:18 7:31 25 F GREENVILLE SC
2 3830 BAIRD SIKKELEE 0:39:26 12:43 27 F SIMPSONVILLE SC
                 
Age Group Race Report as of 12/31/2013 10:03:22 PM for Female 30-34 in division 5K  
Place Bib # Name Finish Pace Age Gender City State
1 3811 LINDSAY HURLEY 0:24:17 7:50 32 F CENTRAL SC
2 3824 KATIE PHILLIPS 0:27:18 8:48 32 F ROCK HILL SC
3 3821 MARTHA MCCARTY 0:34:49 11:14 33 F GREER SC
                 
Age Group Race Report as of 12/31/2013 10:03:22 PM for Female 35-39 in division 5K  
Place Bib # Name Finish Pace Age Gender City State
1 3853 TONYA COCHRAN 0:25:19 8:10 36 F PIEDMONT SC
2 3932 FANNY MORALES 0:26:26 8:31 38 F GREENVILLE SC
3 3843 LISA MCCARTY 0:29:14 9:26 38 F BOILING SPRINGS SC
                 
Age Group Race Report as of 12/31/2013 10:03:23 PM for Female 40-44 in division 5K  
Place Bib # Name Finish Pace Age Gender City State
1 3814 JENNY JONES 0:39:30 12:45 41 F GREER SC
2 3812 JENNIFER JAMES 0:40:54 13:12 44 F GREENVILLE SC
3 3816 GINA LEE 0:41:58 13:32 41 F SIMPSONVILLE SC
                 
Age Group Race Report as of 12/31/2013 10:03:23 PM for Female 45-49 in division 5K  
Place Bib # Name Finish Pace Age Gender City State
1 3805 ROBIN CALAMIA 0:30:21 9:47 49 F SIMPSONVILLE SC
2 3918 TAMARA HEMINGWAY 0:31:03 10:01 48 F GREENVILLE SC
3 3845 RITA REVELS 0:31:54 10:17 46 F YORK SC
                 
Age Group Race Report as of 12/31/2013 10:03:23 PM for Female 50-54 in division 5K  
Place Bib # Name Finish Pace Age Gender City State
1 3850 CONSTANCE HATFIELD 0:54:28 17:34 53 F GREENVILLE SC
                 
Age Group Race Report as of 12/31/2013 10:03:23 PM for Female 55-59 in division 5K  
Place Bib # Name Finish Pace Age Gender City State
1 3832 SOFIA TEMPLE 0:37:00 11:56 57 F TAYLORS SC
2 3809 JANIS GIORDANELLI 0:38:11 12:19 57 F GREENVILLE SC
3 3934 SUSAN GRAHAM 0:46:25 14:58 57 F GREENVILLE SC
                 
Age Group Race Report as of 12/31/2013 10:03:24 PM for Female 70 and Older in division 5K  
Place Bib # Name Finish Pace Age Gender City State
1 3802 LOLA AMCHER 0:50:46 16:22 72 F GREER SC